This is the latest recevied weather packets stored in our database for station/object HB9EKJ-13. If no packets are shown the sender has not sent any weather packets the latest 10 day(s).
| Time | Temp. | Humidity | Pressure | Rain* | Wind** | Luminosity | Snow |
|---|---|---|---|---|---|---|---|
| 1778009226 | 11.67° C | 26% | 1013.9 hPa | 0 mm | - | - | - |
| 1778008627 | 11.67° C | 26% | 1013.9 hPa | 0 mm | - | - | - |
| 1778008326 | 11.67° C | 26% | 1012.9 hPa | 0 mm | - | - | - |
| 1778007729 | 12.22° C | 25% | 1012.9 hPa | 0 mm | - | - | - |
| 1778006827 | 11.67° C | 23% | 1013.9 hPa | 0 mm | - | - | - |
| 1778005926 | 12.22° C | 20% | 1012.9 hPa | 0 mm | - | - | - |
| 1778005027 | 12.78° C | 18% | 1012.9 hPa | 0 mm | - | - | - |
| 1778004128 | 13.33° C | 17% | 1011.8 hPa | 0 mm | - | - | - |
| 1778003228 | 14.44° C | 17% | 1011.8 hPa | 0 mm | - | - | - |
| 1778002328 | 17.22° C | 16% | 1011.8 hPa | 0 mm | - | - | - |
| 1778001728 | 17.22° C | 16% | 1011.8 hPa | 0 mm | - | - | - |
| 1778001427 | 17.78° C | 16% | 1011.8 hPa | 0 mm | - | - | - |
| 1778000527 | 17.78° C | 15% | 1010.8 hPa | 0 mm | - | - | - |
| 1777999627 | 18.33° C | 15% | 1010.8 hPa | 0 mm | - | - | - |
| 1777999027 | 18.33° C | 15% | 1011.8 hPa | 0 mm | - | - | - |
| 1777998129 | 18.33° C | 15% | 1011.8 hPa | 0 mm | - | - | - |
| 1777997828 | 18.89° C | 15% | 1011.8 hPa | 0 mm | - | - | - |
| 1777996028 | 18.89° C | 15% | 1010.8 hPa | 0 mm | - | - | - |
| 1777995427 | 18.89° C | 15% | 1010.8 hPa | 0 mm | - | - | - |
| 1777995128 | 18.89° C | 15% | 1010.8 hPa | 0 mm | - | - | - |
| 1777993626 | 18.89° C | 15% | 1010.8 hPa | 0 mm | - | - | - |
| 1777991828 | 21.11° C | 14% | 1009.7 hPa | 0 mm | - | - | - |
| 1777990928 | 21.11° C | 14% | 1009.7 hPa | 0 mm | - | - | - |
| 1777990027 | 21.11° C | 15% | 1010.8 hPa | 0 mm | - | - | - |
| 1777989127 | 21.11° C | 14% | 1009.7 hPa | 0 mm | - | - | - |
* Rain latest hour (hover to see other rain measurements)
** Current wind speed in m/s (hover to see current wind gust speed)